Location: Newark
(49.7697°N, 2.7094°E)
Time: 19:41:48
(UTC+00:00)

ISS - Visible Passes

Search period start: 27 January 2020 00:00
Search period end: 06 February 2020 00:00
Orbit: 416 x 423 km, 51.6° (Epoch: 28 January)

Date Brightness Start Highest point End Pass type
(mag) Time Alt. Az. Time Alt. Az. Time Alt. Az.
27 Jan -3.7 18:15:01 10° W 18:18:24 73° NNW 18:19:20 44° ENE visible
27 Jan -0.3 19:52:01 10° WNW 19:52:18 12° WNW 19:52:18 12° WNW visible
28 Jan -3.7 17:27:29 10° WSW 17:30:52 87° NNW 17:33:46 14° ENE visible
28 Jan -2.3 19:04:29 10° WNW 19:06:44 37° WNW 19:06:44 37° WNW visible
29 Jan -3.6 18:16:55 10° W 18:20:16 61° N 18:21:10 42° ENE visible
29 Jan -0.3 19:53:50 10° WNW 19:54:08 12° WNW 19:54:08 12° WNW visible
30 Jan -3.6 17:29:19 10° W 17:32:41 64° N 17:35:36 13° ENE visible
30 Jan -2.4 19:06:17 10° WNW 19:08:34 39° WNW 19:08:34 39° WNW visible
31 Jan -3.7 18:18:43 10° WNW 18:22:06 66° N 18:23:01 43° ENE visible
31 Jan -0.3 19:55:36 10° WNW 19:55:59 13° W 19:55:59 13° W visible
01 Feb -3.6 17:31:09 10° WNW 17:34:30 61° N 17:37:30 12° E visible
01 Feb -2.6 19:08:01 10° WNW 19:10:29 43° W 19:10:29 43° W visible
02 Feb -3.8 18:20:26 10° WNW 18:23:51 87° SSW 18:25:01 38° ESE visible
02 Feb -0.4 19:57:35 10° W 19:57:59 12° W 19:57:59 12° W visible
03 Feb -3.8 17:32:52 10° WNW 17:36:15 77° NNE 17:39:38 10° E visible
03 Feb -2.2 19:09:49 10° W 19:12:36 33° SW 19:12:36 33° SW visible
04 Feb -2.9 18:22:08 10° WNW 18:25:25 48° SSW 18:27:19 21° SE visible
05 Feb -3.4 17:34:30 10° WNW 17:37:52 67° SSW 17:41:13 10° ESE visible
05 Feb -1.2 19:12:02 10° W 19:14:12 16° SW 19:15:10 14° SSW visible
